Wind_Speed
27 27 27 27 28 27 26 24 23 24 24 24 23 23 23 23 23 23 23 22 22 22 22 22 21 21 21 21 21 21 21 21 21 21 21 20 20 19 19 19 19 19 19 18 18 18 18 18 17
27 27 28 28 28 27 25 24 24 24 24 24 23 23 23 23 23 23 23 22 23 23 23 22 22 22 22 22 22 22 22 22 22 22 22 22 21 21 21 20 20 20 20 20 19 19 19 19 18
27 27 28 29 28 26 25 25 25 25 25 25 24 24 23 23 23 23 23 23 23 23 23 23 23 22 23 22 22 22 22 22 23 23 23 23 23 22 22 22 22 22 21 21 21 20 20 20 19
27 27 28 28 27 25 25 25 26 26 26 25 25 25 24 24 24 23 23 23 23 23 23 23 23 23 23 23 23 23 23 23 23 23 24 24 24 24 24 24 23 23 23 23 23 23 23 22 22
27 27 27 27 26 25 25 25 25 26 26 26 26 26 25 25 24 24 24 24 24 23 23 23 23 23 24 24 24 24 24 24 24 25 25 25 25 25 25 25 25 25 25 25 25 26 26 25 25
27 27 27 25 25 25 26 26 26 26 26 26 26 26 26 26 26 25 25 25 24 24 24 24 24 24 25 25 25 25 25 26 26 26 26 26 26 26 27 27 27 27 27 27 28 28 27 28 28
26 26 26 25 25 25 26 26 26 26 26 26 26 26 26 27 27 26 26 26 26 26 26 26 26 26 26 26 26 27 27 27 27 27 28 28 28 28 28 28 29 29 29 29 29 29 29 29 30
26 27 26 26 25 25 25 26 26 26 26 26 26 26 26 26 27 26 26 26 26 27 27 27 27 27 27 27 27 27 28 28 28 29 29 30 30 30 30 30 31 31 31 31 31 31 31 31 31
27 27 26 25 26 25 26 26 26 26 26 26 26 26 26 26 26 26 26 26 27 27 27 27 27 27 28 28 28 28 29 29 30 30 31 31 31 32 32 32 33 33 33 33 33 33 33 33 33
28 27 26 26 26 26 26 26 26 26 26 26 26 26 26 26 26 27 27 26 26 26 26 27 27 27 27 28 28 29 30 31 31 32 32 32 33 33 34 34 34 34 35 35 36 36 35 35 36
28 27 26 27 27 27 27 27 26 26 26 26 26 26 25 26 26 27 26 26 26 26 26 26 27 27 28 28 29 30 31 31 32 32 33 34 34 35 35 35 36 36 37 37 37 38 38 38 38
30 29 28 28 28 28 28 27 27 26 26 26 26 26 26 26 26 26 26 26 26 26 27 27 28 29 29 30 30 30 31 31 32 33 34 35 35 36 36 37 37 38 38 39 39 40 41 41 41
31 30 29 29 29 29 29 28 27 26 27 27 27 26 26 26 26 26 26 26 26 27 27 28 28 29 30 30 31 31 32 32 33 34 35 36 37 38 39 39 40 40 41 41 42 42 42 42 42
31 30 30 30 30 29 29 29 28 27 28 27 27 26 26 26 26 26 27 27 28 28 29 29 29 30 30 31 31 32 33 34 35 35 36 37 38 40 41 41 41 42 42 43 43 44 44 44 44
32 32 31 31 30 29 29 29 27 28 28 27 26 26 26 27 27 27 28 28 29 29 30 30 30 31 31 32 32 32 32 33 34 35 37 38 39 40 41 42 42 43 43 43 44 45 46 46 47
33 33 32 31 31 30 30 28 28 28 28 27 27 26 26 27 27 27 28 28 29 29 30 30 31 32 32 32 32 33 33 34 35 36 37 39 40 41 42 42 43 44 45 45 45 46 47 47 48
34 33 32 32 31 31 31 29 29 29 28 27 27 27 27 27 28 28 28 28 28 29 30 31 31 32 33 33 33 34 35 35 36 37 38 39 40 42 43 44 45 45 46 47 48 48 48 49 49
34 34 33 33 32 32 32 30 30 30 29 28 28 28 28 28 28 29 28 28 29 30 30 31 32 33 33 34 35 35 36 36 37 38 38 39 41 42 44 45 46 47 48 49 49 49 49 50 50
36 35 34 33 33 33 33 32 31 31 30 29 29 29 29 29 29 29 29 29 30 30 31 32 32 33 33 34 35 36 36 37 38 39 39 40 41 43 44 46 47 47 48 49 49 49 49 49 49
36 36 35 34 34 34 34 33 33 32 32 31 31 30 30 30 30 30 30 30 30 31 32 32 33 33 33 34 35 36 37 37 38 39 40 40 41 42 43 45 45 46 46 47 48 49 49 49 51
36 36 35 35 35 35 35 35 34 33 33 32 32 31 31 31 31 31 31 31 31 31 32 33 33 33 34 35 35 36 37 38 39 39 39 40 41 42 42 43 43 44 46 46 47 49 50 50 51
37 36 35 35 36 35 36 36 34 33 33 33 32 32 32 32 32 31 31 31 31 32 32 33 34 34 35 35 36 36 37 38 38 39 40 41 41 41 42 43 43 44 45 46 47 48 50 51 51
36 36 36 36 36 37 36 37 34 33 32 32 32 32 32 32 32 32 32 32 32 33 33 34 35 35 36 36 37 37 38 38 39 40 40 40 41 41 42 43 43 44 45 45 46 47 49 51 52
37 37 37 37 37 38 36 37 35 33 31 31 32 33 32 32 32 32 32 33 33 33 34 34 35 35 36 37 37 38 38 39 40 40 40 40 41 41 42 43 44 45 46 46 46 47 49 50 51
37 37 37 38 39 39 36 37 35 32 31 31 32 32 32 33 33 33 33 33 33 33 34 34 35 35 36 37 38 38 39 40 40 40 40 41 41 42 43 43 45 45 45 46 47 48 49 50 52
37 37 37 38 38 38 37 37 34 32 31 31 32 32 33 33 33 33 33 33 33 33 34 34 35 35 36 37 37 38 39 40 40 41 41 41 42 43 44 45 45 45 46 47 47 48 50 51 53
37 38 37 37 38 38 38 37 34 32 31 31 31 32 32 33 33 33 33 33 33 33 34 34 35 36 36 36 37 38 39 40 41 42 42 43 43 43 44 45 46 47 47 48 48 49 50 51 52
38 37 36 37 37 38 38 36 33 32 31 31 31 31 31 32 33 32 32 32 33 33 34 35 36 35 36 36 37 39 40 41 42 42 42 43 44 44 45 45 46 47 47 47 48 49 50 51 52
37 37 37 38 38 37 37 35 32 31 31 31 31 31 31 32 32 32 32 33 33 33 34 35 35 36 36 37 38 39 41 42 42 43 44 44 45 45 46 46 46 46 46 47 48 49 51 52 52
37 37 37 38 38 38 36 35 32 32 32 32 31 31 31 31 32 32 32 32 33 33 33 34 35 36 37 38 39 39 40 42 42 43 43 43 44 44 45 45 45 45 46 47 48 49 50 50 50
Wind_Direction
238 237 237 238 238 239 240 240 239 239 240 241 242 243 244 244 245 247 248 248 249 249 249 249 249 250 250 251 251 251 252 252 253 254 254 255 256 257 258 259 261 262 263 263 265 266 266 264 264
238 238 237 238 238 239 239 239 238 238 240 241 242 242 243 244 245 246 247 247 248 250 250 250 251 251 252 252 252 253 253 253 253 254 254 254 255 257 257 259 260 262 263 264 265 268 269 265 265
237 237 237 238 238 239 239 238 238 238 240 241 242 242 243 244 245 246 247 247 248 249 250 250 251 252 252 252 253 254 254 254 254 255 255 256 256 257 257 258 259 261 262 264 266 267 269 267 266
236 236 236 237 237 237 238 238 238 239 239 240 241 242 242 243 245 246 246 247 248 249 250 250 251 252 252 253 254 255 256 256 256 256 256 257 257 258 259 259 260 261 261 263 265 267 269 268 268
236 235 236 236 235 235 237 237 238 238 239 240 241 242 242 244 245 246 246 247 248 250 251 252 252 253 254 255 255 256 257 258 258 258 258 259 259 259 260 260 261 262 262 264 265 267 269 268 267
234 235 235 234 234 234 236 237 237 238 240 241 242 243 243 245 246 247 248 249 249 250 252 254 255 255 256 256 256 257 258 259 260 261 261 261 261 261 261 262 262 262 264 265 266 266 268 269 268
234 234 233 233 234 235 236 237 237 238 240 242 243 244 245 245 247 248 249 250 250 251 253 254 255 256 257 258 259 259 260 261 262 262 262 262 263 263 263 263 263 264 264 265 266 267 267 269 269
234 234 233 233 234 235 236 237 237 239 240 242 244 245 245 246 247 248 249 250 251 252 253 254 255 256 258 259 260 261 262 262 263 263 264 264 264 264 264 264 264 264 265 265 266 267 268 268 269
235 235 234 233 235 236 236 237 238 239 241 242 244 245 245 246 247 247 249 250 252 252 253 254 255 257 258 260 261 262 263 264 264 265 265 265 265 265 265 265 265 265 266 266 267 267 267 268 269
236 236 235 235 235 236 236 237 238 239 240 242 243 244 244 245 246 247 249 251 252 252 253 253 255 257 260 262 263 264 265 265 266 266 266 266 266 267 267 266 266 267 267 267 267 267 267 268 269
237 237 235 235 235 236 237 238 239 240 240 240 242 243 244 245 246 247 249 250 251 252 253 254 256 258 261 263 265 266 267 266 266 267 267 267 267 267 267 267 267 267 268 268 268 268 269 269 270
238 237 237 236 236 236 237 238 238 239 239 240 242 244 244 244 246 247 248 249 251 253 255 257 258 260 262 264 266 267 268 268 268 268 268 268 268 268 268 268 268 268 269 269 269 269 269 270 270
237 237 237 237 237 237 238 239 239 239 240 241 243 243 244 245 246 247 248 250 252 254 256 258 259 261 263 265 267 268 269 269 269 269 269 270 269 269 269 269 269 269 269 269 270 270 270 270 270
236 237 237 237 237 238 239 239 240 241 242 242 243 244 244 245 246 247 249 251 253 256 258 259 261 263 264 266 267 268 269 270 270 270 270 271 271 270 270 270 270 270 270 270 270 270 270 270 271
236 236 237 237 238 238 240 240 240 241 242 243 244 244 245 246 247 249 251 253 255 257 259 261 262 264 266 267 267 269 270 271 272 272 272 272 272 272 271 271 270 270 269 270 271 271 271 271 271
237 237 237 237 238 239 240 239 240 241 242 243 244 245 246 247 249 251 253 255 257 259 260 262 264 266 267 267 268 269 270 272 273 274 274 274 273 273 273 272 272 271 270 271 271 272 272 272 272
237 238 238 237 238 239 240 238 239 241 242 243 245 246 247 249 251 253 255 257 258 260 262 264 267 268 268 269 269 270 271 272 274 275 276 275 275 275 274 272 273 272 272 271 271 272 272 273 273
239 238 238 238 238 239 239 239 240 241 243 244 246 248 250 251 253 254 256 258 260 263 265 266 267 269 269 270 271 271 272 273 274 276 277 277 277 277 276 274 273 274 273 272 272 273 273 274 274
238 238 238 238 239 239 240 240 241 243 245 247 248 250 251 252 254 256 258 260 263 265 266 267 268 269 271 271 272 272 273 274 275 277 278 278 279 278 278 276 275 275 275 274 273 273 274 274 274
238 239 239 239 240 241 241 241 242 244 246 248 250 250 251 252 254 257 259 262 265 266 266 267 269 270 271 271 272 273 274 275 276 277 278 279 280 280 281 280 279 278 277 276 274 274 274 274 275
238 240 241 241 242 243 243 242 243 245 247 248 250 251 252 254 256 259 261 264 266 267 268 269 269 270 271 272 272 274 275 276 277 278 279 280 281 282 282 282 281 280 279 278 277 276 275 275 276
238 239 241 242 243 244 244 245 244 246 248 249 249 251 253 255 258 261 263 266 267 267 268 269 270 271 271 272 273 274 276 276 278 279 280 281 282 283 283 283 283 283 281 280 279 278 277 276 277
238 238 240 242 244 245 246 248 245 246 248 249 250 252 254 256 259 262 265 267 267 267 269 269 270 271 272 273 274 275 276 277 278 280 281 281 282 283 283 283 283 283 283 282 281 281 280 279 278
237 239 240 242 244 246 246 250 248 246 248 249 251 253 255 257 260 263 265 267 267 268 269 270 271 272 273 274 275 276 277 278 279 280 281 281 282 283 283 283 284 285 285 283 283 283 282 281 281
236 238 241 242 244 247 248 250 250 249 249 250 252 254 256 258 261 263 266 267 267 268 269 270 271 273 274 275 277 277 278 279 280 281 281 282 284 284 284 284 284 286 285 284 284 284 284 283 283
236 237 240 244 246 248 249 251 251 252 253 254 254 256 257 259 261 264 266 267 267 268 269 270 272 273 275 276 277 278 279 280 282 282 282 283 284 284 285 285 285 285 285 285 285 285 286 286 285
236 237 240 244 247 249 249 250 251 253 255 256 257 257 258 260 262 264 266 267 267 268 269 271 272 274 275 276 278 279 280 281 282 281 282 283 284 284 285 286 286 285 285 286 286 287 287 287 287
237 238 239 242 246 249 250 251 253 253 255 257 258 259 259 260 261 263 265 266 267 268 269 271 272 275 276 278 279 280 281 282 282 280 281 283 284 283 285 287 287 286 286 287 287 288 289 289 289
237 238 240 242 245 248 250 252 253 254 255 256 257 259 260 261 262 263 264 266 267 269 271 271 272 275 277 279 281 281 282 282 282 281 282 282 283 284 285 287 287 287 288 287 288 289 290 290 289
237 238 240 242 244 246 249 252 253 254 255 256 257 258 259 261 263 264 266 268 269 270 271 272 274 276 277 279 281 282 283 283 283 282 283 283 284 285 286 287 288 289 289 289 290 291 292 290 289
Height
5814 5815 5817 5819 5821 5823 5825 5827 5828 5829 5830 5832 5833 5835 5836 5838 5840 5842 5842 5841 5842 5843 5844 5845 5846 5847 5847 5848 5849 5850 5851 5852 5852 5853 5853 5854 5854 5854 5854 5855 5855 5855 5855 5855 5854 5854 5854 5854 5853
5809 5811 5813 5814 5816 5818 5821 5823 5824 5825 5826 5827 5829 5830 5831 5833 5834 5835 5836 5837 5838 5839 5840 5841 5842 5843 5844 5845 5845 5846 5847 5848 5848 5849 5849 5850 5850 5851 5851 5851 5851 5851 5851 5851 5851 5851 5851 5850 5850
5804 5806 5808 5810 5812 5815 5817 5818 5819 5820 5822 5823 5825 5826 5827 5829 5830 5831 5832 5833 5834 5835 5836 5837 5838 5839 5840 5841 5841 5842 5843 5844 5844 5845 5845 5846 5846 5847 5847 5847 5847 5847 5847 5847 5847 5847 5847 5847 5847
5799 5801 5803 5805 5808 5810 5811 5813 5814 5815 5817 5819 5820 5821 5823 5825 5826 5827 5828 5829 5830 5831 5832 5833 5834 5835 5836 5836 5837 5838 5839 5839 5840 5841 5841 5842 5842 5842 5843 5843 5843 5843 5843 5843 5843 5843 5843 5843 5843
5794 5796 5798 5800 5803 5805 5806 5808 5809 5811 5812 5814 5815 5817 5818 5820 5821 5822 5823 5824 5826 5827 5827 5828 5829 5831 5831 5832 5833 5833 5834 5835 5835 5836 5836 5837 5837 5838 5838 5838 5839 5839 5839 5839 5839 5839 5838 5838 5838
5789 5791 5794 5796 5798 5800 5801 5803 5804 5806 5807 5809 5810 5812 5813 5815 5816 5817 5819 5820 5821 5822 5823 5824 5825 5826 5827 5827 5828 5829 5829 5830 5830 5831 5831 5832 5832 5833 5833 5833 5833 5834 5834 5834 5833 5833 5833 5833 5833
5785 5786 5788 5791 5792 5794 5796 5797 5799 5800 5802 5804 5805 5807 5808 5810 5811 5812 5814 5815 5816 5817 5818 5819 5820 5821 5822 5822 5823 5823 5824 5824 5825 5825 5826 5826 5827 5827 5827 5827 5828 5828 5828 5828 5828 5827 5827 5827 5827
5779 5781 5783 5785 5787 5789 5791 5792 5794 5795 5797 5798 5800 5802 5803 5805 5806 5807 5808 5809 5811 5812 5813 5814 5814 5815 5816 5817 5817 5818 5818 5819 5819 5819 5820 5820 5820 5821 5821 5821 5821 5821 5822 5822 5821 5821 5821 5821 5821
5773 5776 5778 5781 5782 5784 5785 5786 5788 5790 5791 5793 5794 5796 5798 5799 5800 5802 5803 5804 5805 5806 5807 5808 5809 5809 5810 5811 5811 5812 5812 5812 5813 5813 5813 5813 5814 5814 5814 5814 5814 5815 5815 5815 5815 5815 5815 5814 5814
5767 5770 5774 5775 5776 5778 5779 5781 5783 5784 5786 5787 5789 5790 5792 5793 5794 5796 5797 5798 5799 5800 5801 5802 5803 5804 5804 5805 5805 5806 5806 5806 5806 5806 5806 5807 5807 5807 5807 5807 5807 5807 5807 5807 5807 5807 5807 5807 5807
5762 5765 5767 5769 5770 5772 5773 5775 5777 5779 5781 5782 5783 5784 5786 5787 5788 5790 5791 5793 5794 5795 5795 5796 5797 5798 5798 5799 5799 5799 5799 5799 5799 5799 5799 5799 5799 5799 5799 5799 5799 5799 5799 5799 5799 5799 5799 5799 5799
5756 5759 5760 5762 5764 5765 5767 5769 5771 5773 5775 5776 5777 5779 5780 5781 5783 5784 5785 5787 5788 5789 5789 5790 5791 5791 5792 5792 5792 5792 5792 5792 5792 5792 5792 5792 5792 5791 5791 5791 5791 5791 5791 5791 5791 5790 5790 5790 5790
5749 5752 5753 5755 5757 5759 5761 5763 5765 5767 5768 5770 5771 5773 5774 5776 5777 5778 5779 5781 5782 5782 5783 5784 5784 5785 5785 5785 5785 5785 5785 5784 5784 5784 5784 5783 5783 5783 5783 5783 5782 5782 5782 5782 5781 5781 5781 5781 5780
5742 5745 5747 5749 5751 5753 5755 5757 5759 5762 5762 5764 5765 5767 5768 5770 5771 5772 5773 5774 5775 5776 5777 5777 5777 5778 5778 5778 5778 5777 5777 5777 5776 5776 5776 5775 5774 5774 5773 5773 5773 5772 5772 5772 5771 5771 5771 5770 5770
5735 5738 5740 5742 5744 5747 5749 5751 5754 5755 5756 5758 5759 5761 5762 5763 5765 5766 5767 5768 5768 5769 5769 5770 5770 5770 5770 5770 5770 5769 5769 5768 5768 5767 5767 5766 5765 5764 5763 5763 5762 5762 5761 5761 5760 5760 5760 5759 5759
5727 5730 5733 5736 5738 5740 5743 5746 5747 5748 5750 5751 5753 5754 5756 5757 5758 5759 5760 5761 5761 5762 5762 5762 5762 5762 5762 5762 5762 5762 5761 5761 5760 5759 5758 5757 5756 5755 5754 5753 5752 5751 5750 5750 5749 5749 5748 5747 5747
5720 5723 5726 5730 5731 5733 5735 5739 5740 5741 5743 5745 5746 5748 5749 5750 5751 5752 5753 5753 5754 5754 5754 5754 5754 5754 5754 5754 5753 5753 5753 5752 5751 5750 5749 5747 5746 5745 5743 5742 5741 5739 5738 5738 5737 5737 5736 5735 5735
5714 5716 5719 5721 5724 5726 5728 5731 5733 5734 5736 5738 5740 5741 5742 5743 5744 5745 5745 5746 5746 5747 5746 5746 5746 5746 5745 5745 5744 5744 5743 5743 5741 5740 5739 5738 5736 5734 5732 5730 5729 5727 5726 5725 5724 5724 5723 5723 5722
5705 5708 5711 5714 5716 5718 5720 5723 5726 5727 5729 5731 5733 5734 5735 5736 5737 5737 5738 5739 5739 5739 5738 5738 5737 5737 5736 5736 5735 5735 5734 5733 5732 5731 5729 5727 5725 5722 5720 5718 5716 5714 5713 5711 5711 5710 5710 5709 5708
5696 5699 5703 5706 5708 5710 5712 5715 5718 5720 5722 5724 5725 5726 5728 5728 5729 5730 5731 5731 5731 5730 5729 5729 5728 5728 5727 5727 5726 5725 5724 5723 5722 5720 5718 5716 5713 5711 5708 5705 5703 5701 5699 5698 5698 5697 5697 5696 5695
5688 5692 5695 5697 5699 5701 5704 5707 5710 5712 5714 5716 5717 5718 5720 5721 5722 5722 5723 5723 5722 5721 5721 5720 5719 5719 5718 5717 5716 5715 5714 5713 5712 5710 5708 5706 5703 5700 5697 5694 5691 5689 5688 5686 5685 5684 5684 5683 5682
5679 5683 5686 5688 5690 5693 5696 5698 5703 5704 5706 5708 5709 5711 5712 5713 5714 5714 5714 5714 5713 5713 5712 5711 5710 5709 5708 5708 5707 5706 5705 5703 5702 5700 5698 5695 5692 5689 5686 5683 5681 5678 5676 5674 5673 5671 5670 5669 5668
5670 5674 5677 5679 5681 5684 5687 5689 5694 5696 5697 5700 5701 5702 5704 5704 5705 5705 5705 5705 5704 5703 5702 5701 5701 5700 5699 5698 5697 5695 5694 5693 5692 5689 5687 5684 5681 5679 5676 5673 5670 5667 5665 5663 5661 5659 5658 5656 5655
5661 5665 5668 5670 5672 5675 5679 5680 5684 5688 5690 5692 5693 5694 5695 5696 5696 5696 5696 5696 5695 5694 5693 5692 5691 5690 5689 5688 5686 5685 5684 5683 5681 5679 5676 5674 5671 5668 5665 5661 5658 5656 5653 5651 5649 5647 5645 5643 5641
5652 5656 5659 5660 5662 5666 5670 5671 5676 5679 5682 5683 5684 5685 5686 5687 5687 5687 5687 5687 5686 5685 5684 5683 5682 5681 5679 5678 5676 5675 5673 5672 5670 5668 5666 5663 5660 5657 5653 5650 5647 5644 5642 5639 5637 5635 5633 5630 5628
5643 5647 5650 5653 5655 5658 5660 5662 5668 5670 5672 5673 5675 5676 5677 5678 5678 5678 5678 5677 5677 5676 5675 5674 5672 5671 5669 5668 5666 5664 5663 5661 5659 5657 5654 5652 5649 5646 5642 5639 5636 5633 5630 5628 5625 5622 5620 5617 5614
5633 5636 5641 5643 5645 5648 5650 5654 5659 5661 5663 5664 5666 5667 5668 5669 5669 5669 5669 5668 5667 5666 5666 5664 5663 5662 5660 5658 5656 5654 5652 5650 5648 5645 5643 5640 5638 5635 5631 5628 5624 5621 5618 5615 5612 5609 5607 5603 5600
5624 5628 5631 5633 5635 5638 5642 5646 5650 5653 5654 5656 5657 5658 5659 5660 5660 5660 5660 5659 5658 5657 5656 5655 5654 5652 5651 5648 5646 5644 5642 5639 5636 5634 5632 5629 5626 5623 5620 5616 5612 5609 5606 5602 5599 5596 5593 5590 5586
5615 5619 5621 5624 5627 5630 5633 5639 5642 5643 5645 5647 5648 5649 5650 5651 5651 5651 5650 5650 5649 5648 5647 5646 5644 5643 5641 5639 5636 5634 5631 5628 5625 5623 5620 5617 5614 5611 5608 5604 5601 5597 5594 5590 5587 5584 5580 5576 5572
5605 5609 5612 5616 5618 5621 5625 5632 5632 5634 5636 5637 5639 5640 5641 5641 5642 5642 5641 5641 5640 5639 5638 5636 5635 5633 5631 5629 5626 5623 5620 5617 5614 5611 5609 5606 5602 5599 5596 5593 5589 5586 5582 5578 5575 5571 5567 5563 5559